Location: Newark
(54.4000°N, 32.4500°E)
Time: 02:20:14
(UTC+00:00)

Envisat - Pass Details

Date: 27 January 2020
Orbit: 764 x 766 km, 98.1° (Epoch: 25 February)

Event Time Altitude Azimuth Distance (km) Brightness Sun altitude
Rises 04:53:36 0° 14° (NNE) 3,248 6.2 -7.9°
Reaches altitude 10° 04:55:55 10° 15° (NNE) 2,317 5.4 -7.6°
Maximum altitude 05:01:03 87° 286° (WNW) 774 3.0 -6.9°
Drops below altitude 10° 05:06:07 10° 198° (SSW) 2,299 5.6 -6.2°
Sets 05:08:25 0° 199° (SSW) 3,221 6.3 -5.9°
